This is the latest recevied weather packets stored in our database for station/object GCEMA. If no packets are shown the sender has not sent any weather packets the latest 10 day(s).
| Time | Temp. | Humidity | Pressure | Rain* | Wind** | Luminosity | Snow |
|---|---|---|---|---|---|---|---|
| 1777273118 | 19.44° C | - | 1011.8 hPa | 0 mm | 0 m/s | - | - |
| 1777272756 | 18.89° C | - | 1011.7 hPa | 0 mm | 0 m/s | - | - |
| 1777272577 | 18.89° C | - | 1011.6 hPa | 0 mm | 0 m/s | - | - |
| 1777272397 | 18.89° C | - | 1011.7 hPa | 0 mm | 0 m/s | - | - |
| 1777272218 | 19.44° C | - | 1011.7 hPa | 0 mm | 0 m/s | - | - |
| 1777272040 | 20° C | - | 1011.8 hPa | 0 mm | 0 m/s | - | - |
| 1777271856 | 18.89° C | - | 1011.8 hPa | 0 mm | 0 m/s | - | - |
| 1777271677 | 20° C | - | 1011.9 hPa | 0 mm | 0 m/s | - | - |
| 1777271498 | 19.44° C | - | 1012 hPa | 0 mm | 0 m/s | - | - |
| 1777271320 | 20° C | - | 1012 hPa | 0 mm | 0 m/s | - | - |
| 1777271139 | 20° C | - | 1012.1 hPa | 0 mm | 0 m/s | - | - |
| 1777270778 | 19.44° C | - | 1012.2 hPa | 0 mm | 0 m/s | - | - |
| 1777270418 | 19.44° C | - | 1012.2 hPa | 0 mm | 0 m/s | - | - |
| 1777270240 | 19.44° C | - | 1012.1 hPa | 0 mm | 0 m/s | - | - |
| 1777269876 | 19.44° C | - | 1012.3 hPa | 0 mm | 0 m/s | - | - |
| 1777269698 | 20° C | - | 1012.3 hPa | 0 mm | 0 m/s | - | - |
| 1777269519 | 20° C | - | 1012.3 hPa | 0 mm | 0 m/s | - | - |
| 1777268977 | 18.89° C | - | 1012.2 hPa | 0 mm | 0 m/s | - | - |
| 1777268617 | 20° C | - | 1012.2 hPa | 0 mm | 0 m/s | - | - |
| 1777268437 | 20° C | - | 1012.2 hPa | 0 mm | 0 m/s | - | - |
| 1777268255 | 19.44° C | - | 1012.3 hPa | 0 mm | 0 m/s | - | - |
| 1777268077 | 20° C | - | 1012.3 hPa | 0 mm | 0 m/s | - | - |
| 1777267537 | 20° C | - | 1012.4 hPa | 0 mm | 0 m/s | - | - |
| 1777267356 | 20° C | - | 1012.4 hPa | 0 mm | 0 m/s | - | - |
| 1777267175 | 20° C | - | 1012.4 hPa | 0 mm | 0 m/s | - | - |
* Rain latest hour (hover to see other rain measurements)
** Current wind speed in m/s (hover to see current wind gust speed)